Lid_Strength_Index
2 4 5 6 10 12 15 14 13 11 12 10 8 9 10 8 9 12 6 4 0 -0 -0 -0 -1 -1 -1 -1 -1 -1 -1 -1 -1 -2 -2 -2 -2 -2 -2 -2 -2 -2 -2 -2 -2 -2 -2 -2 -1
2 4 5 10 13 16 15 13 12 11 9 8 9 9 8 9 6 5 4 1 -0 -0 -0 -0 -0 -1 -1 -2 -1 -1 -2 -2 -1 -2 -2 -2 -2 -2 -2 -2 -2 -2 -2 -2 -2 -2 -2 -2 -2
4 5 8 12 15 15 14 13 12 10 9 10 9 8 7 8 6 5 3 0 0 0 -0 -0 -1 -1 -2 -1 -1 -2 -1 -2 -1 -1 -2 -2 -2 -2 -2 -2 -2 -2 -2 -2 -2 -2 -2 -2 -2
6 7 10 13 14 14 13 11 11 10 11 9 8 9 6 5 4 4 2 0 0 -0 -0 0 -1 -2 -2 -2 -2 -2 -2 -2 -2 -1 -2 -2 -2 -2 -2 -2 -2 -2 -2 -2 -2 -2 -2 -2 -2
8 10 13 14 13 12 13 11 11 11 11 11 10 9 9 6 5 3 1 0 1 0 -0 -0 -1 -1 -1 -2 -2 -2 -2 -2 -2 -2 -2 -2 -2 -2 -2 -2 -2 -2 -1 -1 -2 -2 -2 -1 -1
10 11 14 15 15 13 12 11 11 11 11 10 9 9 7 8 5 4 3 3 1 0 -0 -0 1 -0 -1 -1 -1 -2 -2 -2 -2 -2 -2 -2 -2 -2 -2 -2 -2 -2 -1 -0 -0 -1 -2 -1 -1
11 13 15 15 14 13 11 10 11 11 11 11 8 10 9 8 6 5 5 5 4 2 1 0 -0 1 1 -0 -0 -1 -1 -1 -2 -1 -2 -2 -2 -2 -2 -2 -2 -1 -0 0 0 0 -0 0 0
11 13 16 15 14 13 11 11 11 11 11 10 10 11 10 8 5 7 8 9 9 8 6 2 0 1 0 0 1 1 -0 -1 -1 -1 -0 -0 -1 -1 -2 -1 -2 -1 -1 -0 -0 0 1 0 1
11 14 16 14 14 12 11 11 11 11 10 11 10 10 10 7 7 9 9 10 10 10 10 8 3 1 1 0 0 1 1 1 0 1 1 1 -1 -1 -1 -0 -2 -1 -1 -1 -1 0 1 2 2
12 15 14 13 13 12 11 12 10 11 11 12 11 10 9 7 8 8 9 10 11 11 10 9 8 7 4 2 0 0 0 0 -0 -1 0 -0 -0 -0 -0 1 -0 -0 -1 -1 -0 1 2 5 7
13 14 12 12 11 11 11 11 11 12 13 11 11 10 9 9 8 8 9 10 11 11 10 9 8 8 7 3 1 1 1 1 1 0 0 0 1 0 0 1 1 1 3 3 3 4 5 5 6
12 11 12 10 10 11 11 11 12 11 11 10 10 9 10 9 8 8 9 10 10 9 9 9 8 8 7 6 2 1 1 2 1 1 1 1 1 1 2 2 2 2 3 3 4 5 5 5 5
13 12 11 10 10 11 10 11 11 11 11 11 10 10 10 10 10 10 9 9 8 7 7 6 7 7 7 8 1 1 2 2 2 1 1 1 1 2 2 2 2 3 2 3 4 5 5 6 6
12 11 11 10 11 11 11 12 11 10 11 11 10 11 11 11 10 11 10 9 8 7 7 6 5 4 4 4 1 3 3 3 4 3 1 1 1 1 2 3 3 4 3 4 4 6 6 7 6
11 13 11 11 11 11 11 12 12 12 12 11 11 12 11 11 11 11 10 9 8 8 8 7 5 4 4 1 3 4 4 4 5 5 4 2 2 2 3 4 4 4 4 5 5 6 7 7 7
13 14 15 12 11 11 11 14 11 12 12 12 12 12 12 11 11 11 11 10 8 9 8 7 5 3 3 3 4 5 5 6 6 6 5 5 4 4 4 5 5 5 6 6 7 8 9 9 8
14 16 16 13 11 12 13 13 12 13 13 12 13 13 12 12 12 12 11 10 9 9 8 8 6 5 5 5 5 7 7 7 7 6 6 6 6 5 6 7 7 7 7 8 9 11 10 9 9
16 17 16 15 13 13 14 14 12 13 13 13 13 13 13 13 11 12 12 10 10 9 8 8 6 6 6 7 8 8 8 9 9 8 8 8 8 8 8 9 8 8 10 12 12 12 12 11 10
14 16 16 14 12 14 14 14 12 12 13 13 13 13 12 12 11 12 12 11 11 10 9 8 8 8 8 8 8 8 10 10 10 10 10 9 10 11 11 11 11 10 12 13 13 13 11 14 13
14 15 15 14 12 13 14 14 13 13 13 12 12 12 12 12 14 13 12 12 11 10 9 9 7 8 8 7 10 11 11 12 12 11 11 11 12 12 11 12 13 14 14 14 14 14 15 16 16
14 15 15 14 14 15 16 16 15 13 12 12 13 11 11 12 13 14 13 12 11 11 10 10 8 8 8 11 12 13 13 13 13 13 13 13 13 14 14 14 14 15 15 16 16 16 16 17 17
15 13 14 14 16 18 16 19 16 14 13 13 12 11 12 13 13 13 13 13 12 11 10 9 8 8 11 11 12 12 12 12 14 13 14 14 15 15 15 15 15 16 16 16 17 16 17 17 18
14 13 14 15 17 18 19 19 16 15 15 13 12 11 12 13 13 14 13 12 11 10 10 9 8 11 11 11 12 11 12 14 14 15 15 15 16 16 16 16 16 16 16 17 17 17 17 17 18
13 14 15 16 17 20 18 17 18 16 15 14 12 11 12 14 15 14 13 12 12 11 9 8 10 11 12 12 12 13 15 15 15 15 16 16 17 17 17 17 17 17 17 17 17 17 17 17 17
13 15 19 20 22 20 19 19 15 14 13 13 12 12 14 15 15 15 14 13 13 12 9 10 11 12 12 12 13 14 14 14 14 15 16 17 17 18 18 17 17 17 17 17 17 17 17 18 18
15 15 19 23 23 21 18 20 16 14 13 13 13 14 15 15 15 15 14 13 12 11 11 10 12 13 12 13 13 14 14 14 14 15 16 17 17 17 17 17 17 17 17 17 17 17 18 18 19
16 17 14 18 25 23 19 17 15 14 14 13 13 15 15 15 16 15 14 13 13 12 11 11 13 13 13 13 13 14 14 15 15 16 16 17 17 17 17 17 18 18 18 18 18 18 19 19 19
15 14 17 18 23 24 20 19 17 15 14 13 13 13 15 15 16 15 15 14 13 13 13 14 13 14 14 14 14 14 15 15 16 16 17 17 17 17 18 18 18 18 18 18 18 19 19 19 20
16 17 17 16 19 22 23 18 15 14 13 13 13 14 14 15 16 16 15 15 15 15 16 15 14 14 14 14 14 15 15 16 16 17 17 18 18 18 18 18 18 18 19 19 19 19 19 20 20
15 15 15 18 20 19 20 17 14 14 14 14 13 14 15 15 16 16 16 16 16 16 17 16 15 15 14 14 15 15 16 17 17 18 18 18 18 18 18 18 18 18 18 19 19 19 19 20 20